Damman/King Fahd, Saudi Arabia

5:54 AM AST on February 22, 2017 (GMT +0300)
King Fahd International

Weather History for OEDF - October, 2012

Change the Weather History Date:

Friday, October 5, 2012

  Actual Average (OEDR) Record (OEDR)
Temperature  
Mean Temperature 88 °F -  
Max Temperature 104 °F 98 °F 107 °F (2015)
Min Temperature 73 °F 74 °F 69 °F (2004)
Cooling Degree Days 24    
Growing Degree Days 38 (Base 50)    
Moisture  
Dew Point 51 °F    
Average Humidity 34    
Maximum Humidity 58    
Minimum Humidity 9    
Precipitation  
Precipitation 0.00 in - - ()
Sea Level Pressure  
Sea Level Pressure 29.76 in    
Wind  
Wind Speed 5 mph ()    
Max Wind Speed 12 mph    
Max Gust Speed -    
Averages and records for this station are not official NWS values.
T = Trace of Precipitation, MM = Missing Value Source: Averaged Metar Reports

Daily Weather History Graph

Daily Weather History Graph

Search for Another Location

Airport or City:

Trip Planner

Search our weather history database for the weather conditions in past years. The results will help you decide how hot, cold, wet, or windy it might be!

Date:

Astronomy

Oct. 05, 2012 Rise Set
Actual Time 5:35 AM AST 5:22 PM AST
Civil Twilight 5:12 AM AST 5:45 PM AST
Nautical Twilight 4:45 AM AST 6:12 PM AST
Astronomical Twilight 4:18 AM AST 6:39 PM AST
Moon 8:53 PM AST (10/5) 9:57 AM AST (10/5)
Length of Visible Light 12h 33m
Length of Day
11h 47m
Waning Gibbous, 76% of the Moon is Illuminated
Oct 5
Waning Gibbous
Oct 8
Last Quarter
Oct 15
New
Oct 22
First Quarter
Oct 29
Full

Hourly Weather History & Observations

Time (AST) Temp. Heat Index Dew Point Humidity Pressure Visibility Wind Dir Wind Speed Gust Speed Precip Events Conditions
12:00 AM 78.8 °F - 57.2 °F 47% 29.74 in - Variable 3.5 mph - N/A   Clear
1:00 AM 77.0 °F - 55.4 °F 47% 29.74 in - South 4.6 mph - N/A   Clear
2:00 AM 78.8 °F - 59.0 °F 51% 29.74 in - South 6.9 mph - N/A   Clear
3:00 AM 77.0 °F - 59.0 °F 54% 29.74 in - South 5.8 mph - N/A   Clear
4:00 AM 73.4 °F - 57.2 °F 57% 29.74 in - South 6.9 mph - N/A   Clear
5:00 AM 75.2 °F - 53.6 °F 47% 29.77 in - South 5.8 mph - N/A   Clear
6:00 AM 73.4 °F - 50.0 °F 44% 29.77 in - South 5.8 mph - N/A   Clear
7:00 AM 78.8 °F - 44.6 °F 30% 29.77 in - South 5.8 mph - N/A   Clear
8:00 AM 84.2 °F - 37.4 °F 19% 29.80 in - South 5.8 mph - N/A   Clear
9:00 AM 87.8 °F - 39.2 °F 18% 29.80 in - NNW 8.1 mph - N/A   Clear
10:00 AM 93.2 °F - 35.6 °F 13% 29.80 in - WNW 3.5 mph - N/A   Clear
11:00 AM 96.8 °F - 33.8 °F 11% 29.80 in - NNW 5.8 mph - N/A   Clear
12:00 PM 98.6 °F - 35.6 °F 11% 29.77 in - NE 5.8 mph - N/A   Clear
1:00 PM 102.2 °F - 35.6 °F 10% 29.74 in - NNE 4.6 mph - N/A   Clear
2:00 PM 104.0 °F - 33.8 °F 9% 29.74 in - East 3.5 mph - N/A   Clear
3:00 PM 102.2 °F - 42.8 °F 13% 29.74 in - East 9.2 mph - N/A   Clear
4:00 PM 100.4 °F - 42.8 °F 14% 29.74 in - ENE 11.5 mph - N/A   Clear
5:00 PM 95.0 °F 92.7 °F 53.6 °F 25% 29.74 in - ENE 10.4 mph - N/A   Clear
6:00 PM 91.4 °F 92.1 °F 62.6 °F 38% 29.74 in - ENE 9.2 mph - N/A   Clear
7:00 PM 87.8 °F 91.4 °F 68.0 °F 52% 29.77 in - East 8.1 mph - N/A   Clear
8:00 PM 86.0 °F 88.2 °F 66.2 °F 51% 29.77 in - Calm Calm - N/A   Clear
9:00 PM 82.4 °F 84.6 °F 66.2 °F 58% 29.80 in - East 5.8 mph - N/A   Clear
10:00 PM 80.6 °F 82.3 °F 64.4 °F 58% 29.80 in - ESE 4.6 mph - N/A   Clear
11:00 PM 82.4 °F 82.9 °F 60.8 °F 48% 29.80 in - Variable 3.5 mph - N/A   Clear